[[{"header":{"parameterUnit":"m.s-1","parameterCategory":1,"la1":30.2991,"la2":30.254,"lo1":-89.0895,"lo2":-89.0444,"dy":0.0017,"dx":0.0017,"nx":28,"ny":28,"refTime":"2026-03-05T09:00:00:Z","depth":0,"parameterNumber":2,"parameterNumberName":"U-component_of_WINDS"},"data":[0,0,0,0,0,0,0,0,0,0,0,0,0,0,0,0,0,0,0,0,0,0,0,0,0,0,0,0,0,0,0,0,0,0,0,0,0,0,0,0,0,0,0,0,0,0,0,0,0,0,0,0,0,0,0,0,0,0,-4.5535,-4.5535,0,-4.5611,-4.5612,-4.5613,-4.5581,-4.5579,-4.5577,-4.5575,-4.5651,-4.5654,-4.5658,0,0,0,0,0,0,0,0,0,0,0,0,0,-4.5359,-4.5363,-4.5535,-4.5536,-4.5536,-4.5611,-4.5612,-4.5613,-4.5581,-4.5579,-4.5577,-4.5575,-4.5649,-4.5654,-4.5658,0,0,0,0,0,0,0,0,0,0,0,0,0,-4.5436,-4.5364,-4.5534,-4.553,-4.553,-4.5611,-4.5612,-4.5613,-4.5582,-4.5579,-4.5576,-4.5573,-4.5648,-4.5653,-4.5659,-4.5748,0,0,-4.5676,-4.5678,0,0,0,0,0,0,0,0,-4.5431,-4.5442,-4.5529,-4.553,-4.5531,-4.5584,-4.5578,-4.5658,-4.5582,-4.5562,-4.5575,-4.5572,-4.563,-4.5637,-4.5657,-4.5751,-4.5755,-4.5676,-4.568,-4.5682,-4.5684,0,0,0,0,0,0,0,-4.5426,-4.5439,-4.5565,-4.5531,-4.5531,-4.5523,-4.5531,-4.5593,-4.561,-4.5563,-4.5561,-4.5571,-4.563,-4.5652,-4.5659,-4.5756,-4.5676,-4.5681,-4.5684,-4.5687,-4.5927,-4.593,0,0,0,0,0,0,-4.5421,-4.5434,-4.5562,-4.5567,-4.5473,-4.5529,-4.5537,-4.5569,-4.561,-4.5613,-4.5573,-4.5569,-4.5644,-4.5652,-4.5661,-4.5768,-4.5682,-4.5687,-4.569,-4.5924,-4.5928,-4.5931,0,0,0,0,0,0,-4.5417,-4.5433,-4.5559,-4.55,-4.5516,-4.5534,-4.5571,-4.5572,-4.5594,-4.5617,-4.562,-4.5592,-4.5642,-4.5654,-4.5727,-4.577,-4.569,-4.5695,-4.592,-4.5925,-4.5929,-4.5982,0,0,0,0,0,0,-4.5412,-4.5432,-4.5466,-4.5501,-4.5519,-4.5624,-4.5573,-4.5576,-4.5604,-4.56,-4.5636,-4.5639,-4.5641,-4.5719,-4.5732,-4.5776,-4.5699,-4.5917,-4.5923,-4.5928,-4.5976,-4.5987,-4.5997,0,0,0,0,0,-4.5406,-4.5477,-4.5468,-4.5483,-4.5562,-4.5626,-4.5636,-4.5638,-4.5608,-4.5642,-4.5657,-4.5638,-4.5764,-4.5727,-4.5742,-4.5788,-4.5914,-4.5921,-4.5928,-4.5971,-4.5985,-4.5997,0,0,0,0,0,0,-4.5444,-4.5481,-4.5471,-4.5555,-4.5588,-4.5621,-4.5664,-4.5652,-4.5693,-4.5687,-4.5686,-4.5695,-4.577,-4.5787,-4.5745,-4.5876,-4.5834,-4.5844,-4.5862,-4.5876,-4.5886,-4.5879,-4.5704,0,0,0,0,0,-4.5462,-4.5512,-4.5542,-4.5613,-4.563,-4.5645,-4.5672,-4.5671,-4.5704,-4.5718,-4.5738,-4.577,-4.5817,-4.5848,-4.5892,-4.598,-4.5986,-4.6019,-4.6029,-4.6038,-4.6046,-4.6093,-4.6107,-4.5954,-4.5954,-4.5953,0,0,-4.55,-4.5526,-4.5557,-4.5621,-4.5646,-4.5697,-4.5656,-4.5711,-4.5749,-4.5726,-4.5796,-4.5813,-4.5849,-4.593,-4.5966,-4.5945,-4.609,-4.6047,-4.6053,-4.6056,-4.6101,-4.6116,-4.6129,-4.5958,-4.5958,-4.5957,0,0,-4.5594,-4.562,-4.5682,-4.5709,-4.5748,-4.5758,-4.5773,-4.5808,-4.5818,-4.589,-4.5873,-4.5918,-4.5999,-4.6026,-4.605,-4.6158,-4.6141,-4.6172,-4.6226,-4.6272,-4.6284,-4.6295,-4.6332,-4.6345,-4.6181,-4.6181,-4.6181,0,-4.5635,-4.5711,-4.5715,-4.5772,-4.58,-4.5784,-4.5847,-4.5872,-4.5924,-4.5943,-4.5921,-4.6023,-4.6046,-4.6132,-4.6159,-4.618,-4.6196,-4.6166,-4.6282,-4.6293,-4.6303,-4.6338,-4.6352,-4.6184,-4.6184,-4.6183,-4.6183,0,-4.576,-4.5814,-4.5859,-4.5911,-4.5944,-4.6004,-4.6016,-4.605,-4.6047,-4.6059,-4.6132,-4.616,-4.621,-4.6231,-4.6228,-4.6318,-4.6304,-4.6282,-4.6239,-4.6321,-4.6354,-4.6367,-4.6189,-4.6188,-4.6187,-4.6186,0,0,-4.5875,-4.5931,-4.5947,-4.5971,-4.6014,-4.6056,-4.6115,-4.6166,-4.6194,-4.6231,-4.628,-4.6351,-4.6331,-4.6359,-4.6359,-4.64,-4.6482,-4.6373,-4.6374,-4.6391,-4.6582,-4.6596,-4.6612,-4.6473,-4.6476,-4.6478,-4.6578,0,-4.5971,-4.6076,-4.6082,-4.6176,-4.6226,-4.6213,-4.6265,-4.6297,-4.6311,-4.6355,-4.637,-4.6419,-4.6391,-4.6407,-4.6447,-4.6464,-4.652,-4.6457,-4.6517,-4.6519,-4.6506,-4.6629,-4.6644,-4.6737,-4.6591,-4.6594,-4.6595,0,-4.6096,-4.6139,-4.6239,-4.6277,-4.6298,-4.6344,-4.6391,-4.6434,-4.647,-4.6478,-4.651,-4.6505,-4.6566,-4.6524,-4.6607,-4.6564,-4.6589,-4.6602,-4.6605,-4.6608,-4.656,-4.6633,-4.6767,-4.678,-4.6616,-4.6614,-4.6613,0,-4.6168,-4.6251,-4.6321,-4.6342,-4.6389,-4.6422,-4.6442,-4.6477,-4.6507,-4.6549,-4.6568,-4.6616,-4.6642,-4.6679,-4.6687,-4.6656,-4.677,-4.6728,-4.6776,-4.6776,-4.6798,-4.6796,-4.6935,-4.6819,-4.6819,-4.6819,-4.6818,0,-4.6273,-4.6334,-4.6354,-4.6397,-4.6466,-4.6473,-4.654,-4.6559,-4.659,-4.6636,-4.6629,-4.6672,-4.6682,-4.6727,-4.6734,-4.6801,-4.6813,-4.682,-4.682,-4.6819,-4.6818,-4.6833,-4.6826,-4.6822,-4.6822,-4.6821,-4.682,0,-4.6363,-4.638,-4.6456,-4.6495,-4.6506,-4.6555,-4.6588,-4.6629,-4.6643,-4.6702,-4.6716,-4.6738,-4.6791,-4.6804,-4.6867,-4.6872,-4.6951,-4.6946,-4.6938,-4.6937,-4.6983,-4.6978,-4.7135,-4.7155,-4.7029,-4.703,-4.7031,0,-4.6428,-4.6475,-4.652,-4.6551,-4.6573,-4.6623,-4.6655,-4.6665,-4.6697,-4.6745,-4.678,-4.6833,-4.6875,-4.6961,-4.6981,-4.703,-4.7025,-4.7077,-4.7032,-4.7029,-4.7023,-4.7019,-4.7024,-4.7084,-4.7086,-4.7087,-4.7088,0,-4.6539,-4.6546,-4.6592,-4.6642,-4.668,-4.6719,-4.6757,-4.6782,-4.6797,-4.6835,-4.689,-4.6923,-4.6989,-4.7041,-4.709,-4.7111,-4.7101,-4.7103,-4.7116,-4.7113,-4.7105,-4.7108,-4.6959,-4.7098,-4.7097,-4.7096,-4.7095,-4.7095,-4.6617,-4.6658,-4.6697,-4.6749,-4.6779,-4.6814,-4.6855,-4.6876,-4.6922,-4.6977,-4.698,-4.704,-4.7077,-4.7142,-4.7167,-4.7213,-4.7197,-4.7216,-4.7221,-4.7225,-4.7228,-4.7101,-4.7222,-4.7222,-4.7222,-4.7221,-4.7221,0,-4.6726,-4.6751,-4.6799,-4.6853,-4.6894,-4.6885,-4.6927,-4.6961,-4.7014,-4.705,-4.7093,-4.7156,-4.7207,-4.7234,-4.7285,-4.7317,-4.7314,-4.7329,-4.7325,-4.733,-4.724,-4.7223,-4.7331,-4.7331,-4.7331,-4.7331,-4.7331,-4.7331,-4.6788,-4.6857,-4.6868,-4.6953,-4.6977,-4.7036,-4.7061,-4.7094,-4.7123,-4.7194,-4.7237,-4.7255,-4.7288,-4.7341,-4.7388,-4.7394,-4.7412,-4.7429,-4.7434,-4.7348,-4.7337,-4.7326,-4.7309,-4.7434,-4.7434,-4.7519,-4.752,-4.7521]},{"header":{"parameterUnit":"m.s-1","parameterCategory":1,"la1":30.2991,"la2":30.254,"lo1":-89.0895,"lo2":-89.0444,"dy":0.0017,"dx":0.0017,"nx":28,"ny":28,"refTime":"2026-03-05T09:00:00:Z","depth":0,"parameterNumber":3,"parameterNumberName":"V-component_of_WINDS"},"data":[0,0,0,0,0,0,0,0,0,0,0,0,0,0,0,0,0,0,0,0,0,0,0,0,0,0,0,0,0,0,0,0,0,0,0,0,0,0,0,0,0,0,0,0,0,0,0,0,0,0,0,0,0,0,0,0,0,0,2.5423,2.5424,0,2.5508,2.5509,2.551,2.5536,2.5536,2.5536,2.5535,2.562,2.5622,2.5625,0,0,0,0,0,0,0,0,0,0,0,0,0,2.5283,2.5285,2.5423,2.5424,2.5425,2.5508,2.5509,2.551,2.5537,2.5536,2.5536,2.5535,2.5619,2.5622,2.5625,0,0,0,0,0,0,0,0,0,0,0,0,0,2.5353,2.5286,2.5423,2.5448,2.5451,2.5508,2.5509,2.5511,2.5537,2.5536,2.5535,2.5535,2.5618,2.5622,2.5625,2.5662,0,0,2.5637,2.5639,0,0,0,0,0,0,0,0,2.5349,2.5358,2.5443,2.5446,2.545,2.5511,2.5491,2.5561,2.5537,2.5504,2.5535,2.5535,2.5584,2.559,2.5608,2.5666,2.5669,2.5638,2.564,2.5642,2.5643,0,0,0,0,0,0,0,2.5344,2.5355,2.5457,2.5445,2.5449,2.5455,2.5465,2.5504,2.5546,2.5507,2.5509,2.5519,2.5586,2.5604,2.561,2.5671,2.5638,2.5641,2.5644,2.5645,2.5766,2.5767,0,0,0,0,0,0,2.5335,2.535,2.5454,2.5459,2.5397,2.5458,2.5469,2.5492,2.5546,2.5554,2.5519,2.552,2.5597,2.5605,2.5613,2.5661,2.5642,2.5646,2.5648,2.5766,2.5767,2.5767,0,0,0,0,0,0,2.5332,2.5344,2.545,2.5405,2.542,2.5461,2.5487,2.5494,2.5513,2.5555,2.5563,2.553,2.5597,2.5607,2.5651,2.5665,2.5647,2.5651,2.5764,2.5766,2.5767,2.5757,0,0,0,0,0,0,2.5328,2.5343,2.5357,2.5406,2.5422,2.5486,2.5488,2.5496,2.552,2.5521,2.5568,2.5575,2.5598,2.5645,2.5654,2.567,2.5654,2.5763,2.5765,2.5767,2.5756,2.5758,2.5759,0,0,0,0,0,2.5323,2.5349,2.5357,2.537,2.544,2.5487,2.5496,2.5523,2.552,2.5535,2.5564,2.5573,2.5662,2.5649,2.566,2.5677,2.5763,2.5765,2.5766,2.5756,2.5757,2.5759,0,0,0,0,0,0,2.5299,2.5356,2.5366,2.5409,2.5443,2.5492,2.5511,2.5524,2.5558,2.5558,2.5589,2.5599,2.5641,2.5663,2.5648,2.5717,2.5713,2.5717,2.57,2.5702,2.5704,2.5698,2.5657,0,0,0,0,0,2.5299,2.5333,2.538,2.5414,2.5431,2.5468,2.5489,2.5507,2.5544,2.5558,2.5589,2.5623,2.566,2.5682,2.5717,2.576,2.5771,2.5777,2.5779,2.578,2.5783,2.581,2.5814,2.5774,2.5774,2.5774,0,0,2.5299,2.5334,2.5353,2.541,2.5439,2.5474,2.548,2.5515,2.5542,2.5563,2.5606,2.5631,2.5671,2.5715,2.5736,2.5735,2.5797,2.5782,2.5782,2.5785,2.5812,2.5816,2.5819,2.5775,2.5775,2.5775,0,0,2.5316,2.5346,2.5379,2.5408,2.5453,2.5478,2.5486,2.5533,2.5551,2.5595,2.5613,2.5645,2.5705,2.5734,2.5757,2.579,2.5801,2.58,2.5808,2.5834,2.5837,2.584,2.5853,2.5857,2.5804,2.5804,2.5804,0,2.531,2.5363,2.5393,2.5429,2.5455,2.5478,2.5512,2.5539,2.5592,2.5609,2.5608,2.5686,2.5715,2.5767,2.5776,2.5793,2.5804,2.5795,2.5834,2.5837,2.584,2.5854,2.5858,2.5803,2.5803,2.5803,2.5803,0,2.5355,2.5392,2.5413,2.5466,2.5494,2.5528,2.5564,2.5588,2.5605,2.563,2.5676,2.5712,2.5757,2.577,2.5785,2.5826,2.5824,2.5828,2.5825,2.5844,2.5857,2.5862,2.5803,2.5803,2.5803,2.5803,0,0,2.5357,2.543,2.5437,2.5463,2.5515,2.5544,2.5581,2.5626,2.5647,2.5684,2.5716,2.5768,2.5774,2.5799,2.5818,2.5841,2.5868,2.5843,2.5844,2.5847,2.5917,2.5914,2.5919,2.5876,2.5877,2.5878,2.5914,0,2.5383,2.545,2.5479,2.5533,2.5569,2.5593,2.5626,2.5662,2.5687,2.5721,2.5749,2.5787,2.5789,2.5806,2.5829,2.5859,2.5882,2.5857,2.5906,2.5908,2.5896,2.5926,2.5923,2.5955,2.5919,2.592,2.5921,0,2.542,2.546,2.5518,2.5569,2.5585,2.5614,2.5659,2.5691,2.5733,2.5751,2.5782,2.5801,2.5841,2.5835,2.5892,2.5874,2.5897,2.5915,2.5917,2.5922,2.5915,2.5933,2.5966,2.5971,2.5928,2.5928,2.5927,0,2.5418,2.5486,2.553,2.5551,2.5612,2.5632,2.5658,2.57,2.5726,2.5766,2.5783,2.5826,2.585,2.5883,2.5914,2.5907,2.5968,2.5965,2.5984,2.5984,2.5996,2.5995,2.6033,2.6009,2.6009,2.6009,2.6009,0,2.5443,2.5478,2.5531,2.5558,2.5598,2.5633,2.5672,2.5699,2.5737,2.5771,2.5794,2.5825,2.5863,2.5899,2.5923,2.5968,2.5978,2.5993,2.5999,2.5992,2.599,2.6007,2.6005,2.601,2.601,2.601,2.6009,0,2.5447,2.5484,2.5534,2.5589,2.5604,2.5631,2.5678,2.5706,2.5734,2.5776,2.5788,2.5832,2.5876,2.591,2.5966,2.5983,2.6031,2.6037,2.6017,2.602,2.6038,2.6037,2.6089,2.6099,2.6067,2.6067,2.6068,0,2.5461,2.5489,2.5548,2.5573,2.56,2.5639,2.5667,2.5703,2.5731,2.5784,2.5806,2.5852,2.5891,2.596,2.5997,2.6041,2.6049,2.6064,2.6055,2.6048,2.6051,2.6049,2.6053,2.6065,2.6065,2.6065,2.6065,0,2.5482,2.55,2.554,2.5587,2.5621,2.5659,2.5698,2.5717,2.576,2.5791,2.5837,2.5868,2.5928,2.5974,2.6023,2.6049,2.6065,2.6068,2.6076,2.6068,2.6056,2.6064,2.6021,2.6067,2.6067,2.6066,2.6066,2.6066,2.5493,2.552,2.5567,2.5611,2.5645,2.5682,2.5712,2.5745,2.5785,2.5838,2.5856,2.5905,2.5949,2.6017,2.6045,2.6083,2.6084,2.6093,2.6096,2.6098,2.6098,2.605,2.6092,2.6092,2.6092,2.6092,2.6092,0,2.5516,2.5549,2.559,2.5645,2.5681,2.5695,2.5739,2.5768,2.5811,2.5852,2.5891,2.5946,2.5992,2.6033,2.6081,2.6104,2.6113,2.6116,2.6114,2.6121,2.6094,2.6084,2.6108,2.6108,2.6108,2.6108,2.6108,2.6108,2.5533,2.5581,2.5604,2.567,2.5702,2.5751,2.5776,2.581,2.5844,2.5904,2.5943,2.5971,2.6013,2.6065,2.6108,2.6119,2.6136,2.6137,2.615,2.6125,2.6122,2.612,2.6111,2.6141,2.6141,2.6174,2.6175,2.6175]}]]